| time (UTC) | temp C | wind direction | speed KPH | gust KPH | rain 1hr cm | rain 24hr cm | rain mn cm | humidity % | barometer mb |
| 20260906154607 | 28 | 39 | 1.6 | 9.7 | 0.48 | 0.86 | 0.48 | 81 | 1015.3 |
| 20260906153104 | 30 | 341 | 0.0 | 3.2 | 0.00 | 0.38 | 0.00 | 75 | 1015.0 |
| 20260906151601 | 30 | 38 | 1.6 | 6.4 | 0.00 | 0.38 | 0.00 | 75 | 1014.9 |
| 20260906150105 | 30 | 47 | 0.0 | 4.8 | 0.00 | 0.38 | 0.00 | 78 | 1014.8 |
| 20260906144623 | 30 | 336 | 1.6 | 4.8 | 0.00 | 0.38 | 0.00 | 81 | 1014.9 |
| 20260906143104 | 30 | 66 | 1.6 | 4.8 | 0.00 | 0.38 | 0.00 | 82 | 1014.9 |
| 20260906141628 | 28 | 360 | 0.0 | 4.8 | 0.00 | 0.38 | 0.00 | 84 | 1014.8 |
| 20260906140108 | 28 | 62 | 1.6 | 3.2 | 0.00 | 0.38 | 0.00 | 84 | 1014.7 |
| 20260906134608 | 28 | 36 | 0.0 | 3.2 | 0.00 | 0.38 | 0.00 | 87 | 1014.6 |
| 20260906133056 | 27 | 49 | 0.0 | 3.2 | 0.00 | 0.38 | 0.00 | 91 | 1014.7 |
| 20260906131608 | 26 | 0 | 0.0 | 0.0 | 0.00 | 0.38 | 0.00 | 93 | 1014.5 |
| 20260906130106 | 26 | 0 | 0.0 | 0.0 | 0.00 | 0.38 | 0.00 | 94 | 1014.2 |
| 20260906124602 | 25 | 0 | 0.0 | 0.0 | 0.00 | 0.38 | 0.00 | 94 | 1014.2 |
| 20260906123108 | 25 | 0 | 0.0 | 0.0 | 0.00 | 0.38 | 0.00 | 94 | 1014.0 |
| 20260906121606 | 25 | 0 | 0.0 | 0.0 | 0.00 | 0.38 | 0.00 | 94 | 1013.9 |
| 20260906120107 | 25 | 0 | 0.0 | 0.0 | 0.00 | 0.38 | 0.00 | 94 | 1013.7 |
| 20260906114558 | 24 | 0 | 0.0 | 0.0 | 0.00 | 0.38 | 0.00 | 94 | 1013.6 |
| 20260906113104 | 25 | 0 | 0.0 | 0.0 | 0.00 | 0.38 | 0.00 | 94 | 1013.5 |
| 20260906111605 | 25 | 0 | 0.0 | 0.0 | 0.00 | 0.38 | 0.00 | 93 | 1013.3 |
| 20260906110107 | 25 | 0 | 0.0 | 0.0 | 0.00 | 0.38 | 0.00 | 93 | 1013.3 |
| 20260906104624 | 25 | 0 | 0.0 | 0.0 | 0.00 | 0.38 | 0.00 | 93 | 1013.3 |
| 20260906103110 | 25 | 0 | 0.0 | 0.0 | 0.00 | 0.38 | 0.00 | 93 | 1013.2 |
| 20260906101604 | 25 | 0 | 0.0 | 0.0 | 0.00 | 0.38 | 0.00 | 93 | 1013.2 |
| 20260906100104 | 25 | 0 | 0.0 | 0.0 | 0.00 | 0.38 | 0.00 | 92 | 1013.1 |
| 20260906094639 | 25 | 0 | 0.0 | 0.0 | 0.00 | 0.38 | 0.00 | 92 | 1013.1 |
| 20260906093111 | 25 | 0 | 0.0 | 0.0 | 0.00 | 0.38 | 0.00 | 93 | 1013.0 |
| 20260906091617 | 25 | 0 | 0.0 | 0.0 | 0.00 | 0.38 | 0.00 | 92 | 1012.9 |
| 20260906090100 | 25 | 0 | 0.0 | 0.0 | 0.00 | 0.38 | 0.00 | 92 | 1012.9 |
| 20260906084606 | 25 | 0 | 0.0 | 0.0 | 0.00 | 0.38 | 0.00 | 92 | 1012.8 |
| 20260906083105 | 25 | 0 | 0.0 | 0.0 | 0.00 | 0.38 | 0.00 | 92 | 1012.8 |
| 20260906081603 | 25 | 0 | 0.0 | 0.0 | 0.00 | 0.38 | 0.00 | 91 | 1013.0 |
| 20260906080103 | 26 | 0 | 0.0 | 0.0 | 0.00 | 0.38 | 0.00 | 90 | 1013.0 |
| 20260906074613 | 26 | 0 | 0.0 | 0.0 | 0.00 | 0.38 | 0.00 | 90 | 1013.0 |
| 20260906073105 | 26 | 0 | 0.0 | 0.0 | 0.00 | 0.38 | 0.00 | 90 | 1013.0 |
| 20260906071607 | 26 | 0 | 0.0 | 0.0 | 0.00 | 0.38 | 0.00 | 90 | 1013.0 |
| 20260906070104 | 26 | 0 | 0.0 | 0.0 | 0.00 | 0.38 | 0.00 | 90 | 1013.2 |
| 20260906064607 | 26 | 0 | 0.0 | 0.0 | 0.00 | 0.38 | 0.00 | 90 | 1013.1 |
| 20260906063115 | 26 | 0 | 0.0 | 0.0 | 0.00 | 0.38 | 0.00 | 89 | 1013.1 |
| 20260906061605 | 26 | 0 | 0.0 | 0.0 | 0.00 | 0.38 | 0.00 | 89 | 1013.2 |
| 20260906060107 | 26 | 0 | 0.0 | 0.0 | 0.00 | 0.38 | 0.00 | 89 | 1013.1 |
| 20260906054607 | 26 | 232 | 0.0 | 3.2 | 0.00 | 0.38 | 0.00 | 88 | 1013.0 |
| 20260906053110 | 26 | 0 | 0.0 | 3.2 | 0.00 | 0.38 | 0.00 | 89 | 1013.0 |
| 20260906051605 | 26 | 199 | 0.0 | 0.0 | 0.00 | 0.38 | 0.00 | 89 | 1013.1 |
| 20260906050130 | 26 | 0 | 0.0 | 0.0 | 0.00 | 0.38 | 0.00 | 87 | 1013.1 |
| 20260906044557 | 27 | 0 | 0.0 | 0.0 | 0.00 | 0.38 | 0.38 | 86 | 1013.1 |
| 20260906043103 | 27 | 0 | 0.0 | 3.2 | 0.00 | 0.38 | 0.38 | 86 | 1013.1 |
| 20260906041603 | 27 | 177 | 1.6 | 3.2 | 0.00 | 0.38 | 0.38 | 86 | 1013.1 |
| 20260906040137 | 27 | 0 | 0.0 | 0.0 | 0.00 | 0.38 | 0.38 | 86 | 1013.3 |
| 20260906034607 | 27 | 0 | 0.0 | 3.2 | 0.00 | 0.38 | 0.38 | 86 | 1013.4 |
| 20260906033104 | 27 | 0 | 0.0 | 3.2 | 0.00 | 0.38 | 0.38 | 86 | 1013.6 |
| 20260906031603 | 27 | 171 | 0.0 | 0.0 | 0.00 | 0.38 | 0.38 | 85 | 1013.4 |
| 20260906030059 | 27 | 0 | 0.0 | 0.0 | 0.00 | 0.38 | 0.38 | 85 | 1013.5 |
| 20260906024602 | 27 | 0 | 0.0 | 0.0 | 0.00 | 0.38 | 0.38 | 85 | 1013.3 |
| 20260906023104 | 27 | 0 | 0.0 | 0.0 | 0.00 | 0.38 | 0.38 | 85 | 1013.1 |
| 20260906021608 | 27 | 0 | 0.0 | 0.0 | 0.00 | 0.38 | 0.38 | 84 | 1012.8 |
| 20260906020106 | 27 | 0 | 0.0 | 0.0 | 0.00 | 0.38 | 0.38 | 84 | 1012.7 |
| 20260906014608 | 28 | 0 | 0.0 | 0.0 | 0.00 | 0.38 | 0.38 | 84 | 1012.5 |
| 20260906013105 | 28 | 0 | 0.0 | 0.0 | 0.00 | 0.38 | 0.38 | 83 | 1012.4 |
| 20260906011604 | 28 | 0 | 0.0 | 1.6 | 0.00 | 0.38 | 0.38 | 83 | 1012.3 |
| 20260906010109 | 28 | 0 | 0.0 | 3.2 | 0.00 | 0.38 | 0.38 | 82 | 1012.3 |
| 20260906004604 | 28 | 0 | 0.0 | 3.2 | 0.00 | 0.38 | 0.38 | 81 | 1012.4 |
| 20260906003053 | 28 | 0 | 0.0 | 1.6 | 0.00 | 0.38 | 0.38 | 80 | 1012.4 |
| 20260906001617 | 29 | 0 | 0.0 | 3.2 | 0.00 | 0.38 | 0.38 | 80 | 1012.7 |
| 20260906000106 | 29 | 0 | 0.0 | 3.2 | 0.00 | 0.38 | 0.38 | 79 | 1012.9 |
| 20260905234558 | 29 | 0 | 0.0 | 3.2 | 0.00 | 0.38 | 0.38 | 78 | 1012.9 |
| 20260905233113 | 30 | 178 | 0.0 | 4.8 | 0.00 | 0.38 | 0.38 | 77 | 1012.8 |
| 20260905231608 | 30 | 175 | 1.6 | 3.2 | 0.00 | 0.38 | 0.38 | 76 | 1012.6 |
| 20260905230111 | 30 | 38 | 1.6 | 4.8 | 0.00 | 0.38 | 0.38 | 74 | 1012.6 |
| 20260905224601 | 30 | 122 | 0.0 | 6.4 | 0.00 | 0.38 | 0.38 | 74 | 1012.5 |
| 20260905223105 | 31 | 291 | 0.0 | 3.2 | 0.00 | 0.38 | 0.38 | 73 | 1012.5 |
| 20260905221603 | 31 | 111 | 0.0 | 6.4 | 0.00 | 0.38 | 0.38 | 72 | 1012.4 |
| 20260905220105 | 31 | 196 | 1.6 | 4.8 | 0.00 | 0.38 | 0.38 | 68 | 1012.3 |
| 20260905214558 | 32 | 217 | 1.6 | 4.8 | 0.00 | 0.38 | 0.38 | 65 | 1012.5 |
| 20260905213110 | 32 | 9 | 1.6 | 3.2 | 0.00 | 0.38 | 0.38 | 66 | 1012.6 |
| 20260905211601 | 32 | 214 | 1.6 | 8.0 | 0.00 | 0.38 | 0.38 | 64 | 1012.7 |
| 20260905210109 | 32 | 159 | 1.6 | 6.4 | 0.00 | 0.38 | 0.38 | 65 | 1012.7 |
| 20260905204605 | 32 | 152 | 1.6 | 4.8 | 0.00 | 0.38 | 0.38 | 65 | 1012.7 |
| 20260905203058 | 32 | 232 | 1.6 | 3.2 | 0.00 | 0.38 | 0.38 | 66 | 1012.9 |
| 20260905201610 | 32 | 199 | 1.6 | 4.8 | 0.00 | 0.38 | 0.38 | 65 | 1013.0 |
| 20260905200147 | 31 | 334 | 0.0 | 3.2 | 0.00 | 0.38 | 0.38 | 70 | 1013.0 |
| 20260905194612 | 31 | 276 | 0.0 | 3.2 | 0.00 | 0.38 | 0.38 | 70 | 1013.2 |
| 20260905193101 | 30 | 91 | 0.0 | 4.8 | 0.00 | 0.38 | 0.38 | 70 | 1013.3 |
| 20260905191605 | 30 | 44 | 0.0 | 3.2 | 0.00 | 0.38 | 0.38 | 71 | 1013.7 |
| 20260905184612 | 30 | 205 | 0.0 | 3.2 | 0.00 | 0.38 | 0.38 | 77 | 1014.1 |
| 20260905183112 | 28 | 81 | 0.0 | 3.2 | 0.05 | 0.38 | 0.38 | 79 | 1014.4 |
| 20260905181607 | 27 | 0 | 0.0 | 3.2 | 0.28 | 0.38 | 0.38 | 80 | 1014.4 |
| 20260905180116 | 26 | 0 | 0.0 | 0.0 | 0.38 | 0.38 | 0.38 | 85 | 1014.7 |
| 20260905174601 | 26 | 87 | 0.0 | 3.2 | 0.38 | 0.38 | 0.38 | 86 | 1015.1 |
| 20260905173104 | 25 | 171 | 1.6 | 8.0 | 0.33 | 0.33 | 0.33 | 87 | 1015.3 |
| 20260905171607 | 27 | 150 | 3.2 | 11.3 | 0.10 | 0.10 | 0.10 | 84 | 1015.6 |
| 20260905170101 | 27 | 150 | 6.4 | 16.1 | 0.00 | 0.00 | 0.00 | 75 | 1015.7 |
| 20260905164606 | 28 | 10 | 3.2 | 9.7 | 0.00 | 0.00 | 0.00 | 70 | 1015.5 |
| 20260905163109 | 30 | 325 | 6.4 | 17.7 | 0.00 | 0.00 | 0.00 | 70 | 1015.2 |
| 20260905161615 | 31 | 29 | 8.0 | 12.9 | 0.00 | 0.00 | 0.00 | 67 | 1015.1 |
| 20260905160101 | 31 | 346 | 1.6 | 6.4 | 0.00 | 0.00 | 0.00 | 71 | 1015.0 |